FW3073 Weather Reports


Display with metric or nautical units.
time (UTC)temp
F
wind
direction
speed
MPH
gust
MPH
rain 1hr
in
rain 24hr
in
rain mn
in
humidity
%
barometer
mb
20260510134003 58 203 4.0 10.0 0.00 0.05 0.05 71 1016.2
20260510133003 58 175 3.0 9.0 0.00 0.05 0.05 72 1015.8
20260510132003 58 175 3.0 13.0 0.00 0.05 0.05 70 1015.8
20260510131003 57 160 2.0 10.0 0.00 0.05 0.05 76 1015.8
20260510130004 55 166 2.0 6.0 0.00 0.05 0.05 79 1016.2
20260510125003 54 164 3.0 10.0 0.00 0.05 0.05 80 1016.2
20260510124003 54 164 1.0 7.0 0.00 0.05 0.05 83 1016.5
20260510123003 53 144 1.0 4.0 0.00 0.05 0.05 84 1016.5
20260510122003 52 150 1.0 4.0 0.00 0.05 0.05 87 1016.5
20260510121003 50 161 1.0 6.0 0.00 0.05 0.05 89 1016.9
20260510120004 49 161 1.0 3.0 0.00 0.05 0.05 93 1016.9
20260510115003 49 173 1.0 3.0 0.00 0.05 0.05 95 1016.9
20260510114003 48 153 1.0 3.0 0.00 0.05 0.05 96 1016.9
20260510113004 48 157 1.0 2.0 0.00 0.05 0.05 96 1017.2
20260510112003 48 171 1.0 3.0 0.00 0.05 0.05 97 1017.2
20260510111003 47 157 1.0 4.0 0.00 0.05 0.05 97 1017.2
20260510110004 47 148 1.0 4.0 0.00 0.05 0.05 98 1016.9
20260510105003 47 160 1.0 4.0 0.00 0.05 0.05 98 1017.2
20260510104004 46 150 1.0 3.0 0.00 0.05 0.05 98 1016.9
20260510103003 46 167 1.0 2.0 0.00 0.05 0.05 98 1016.9
20260510102004 46 200 0.0 2.0 0.00 0.05 0.05 98 1016.9
20260510101003 46 160 1.0 7.0 0.00 0.05 0.05 98 1016.9
20260510100004 46 176 1.0 4.0 0.00 0.05 0.05 98 1017.2
20260510095004 46 199 1.0 2.0 0.00 0.05 0.05 98 1016.9
20260510094003 45 170 1.0 3.0 0.00 0.05 0.05 98 1016.9
20260510093003 45 175 1.0 2.0 0.00 0.05 0.05 98 1016.5
20260510092003 45 177 1.0 2.0 0.00 0.05 0.05 98 1016.2
20260510091003 45 186 1.0 4.0 0.00 0.05 0.05 98 1016.5
20260510090004 45 142 0.0 1.0 0.00 0.05 0.05 97 1016.5
20260510085003 45 157 1.0 3.0 0.00 0.05 0.05 97 1016.5
20260510084003 45 176 1.0 4.0 0.00 0.05 0.05 97 1016.5
20260510083004 45 184 1.0 3.0 0.00 0.05 0.05 97 1016.5
20260510082003 45 183 1.0 4.0 0.00 0.05 0.05 97 1016.5
20260510081004 45 190 1.0 3.0 0.00 0.05 0.05 97 1016.9
20260510080003 45 169 1.0 3.0 0.00 0.05 0.05 97 1016.5
20260510075004 45 183 2.0 4.0 0.00 0.05 0.05 97 1016.5
20260510074003 45 193 1.0 3.0 0.00 0.05 0.05 97 1016.5
20260510073003 45 168 1.0 4.0 0.00 0.05 0.05 97 1016.5
20260510072004 45 170 2.0 7.0 0.01 0.05 0.05 97 1016.5
20260510071003 45 168 1.0 4.0 0.01 0.05 0.05 97 1016.2
20260510070004 45 169 1.0 4.0 0.02 0.05 0.05 97 1016.5
20260510065003 45 167 1.0 3.0 0.02 0.05 0.05 97 1016.5
20260510064003 45 172 1.0 3.0 0.02 0.05 0.05 96 1016.5
20260510063004 45 172 1.0 3.0 0.02 0.05 0.05 96 1016.5
20260510062003 45 190 1.0 3.0 0.01 0.04 0.04 96 1016.5
20260510061003 44 176 1.0 3.0 0.01 0.04 0.04 96 1016.5
20260510060004 44 197 1.0 3.0 0.00 0.03 0.03 96 1016.5
20260510055004 44 170 1.0 2.0 0.00 0.03 0.03 96 1016.2
20260510054004 44 163 0.0 2.0 0.00 0.03 0.03 96 1016.5
20260510053004 44 173 1.0 6.0 0.01 0.03 0.03 96 1016.5
20260510052003 44 213 0.0 2.0 0.01 0.03 0.03 96 1016.5
20260510051003 44 183 0.0 2.0 0.01 0.03 0.03 96 1016.5
20260510050004 44 199 0.0 2.0 0.01 0.03 0.03 96 1016.5
20260510045003 44 164 1.0 3.0 0.02 0.03 0.03 95 1016.9
20260510044003 44 199 1.0 3.0 0.02 0.03 0.03 95 1016.9
20260510043004 44 168 1.0 3.0 0.02 0.02 0.02 94 1016.5
20260510042003 45 198 1.0 3.0 0.02 0.02 0.02 94 1016.9
20260510041004 45 203 1.0 3.0 0.02 0.02 0.02 93 1016.5
20260510040003 45 188 1.0 3.0 0.02 0.02 0.02 91 1016.5
20260510035003 45 203 1.0 3.0 0.01 0.01 0.01 90 1016.5
20260510034004 45 199 1.0 3.0 0.01 0.01 0.01 88 1016.5
20260510033003 46 179 1.0 2.0 0.00 0.00 0.00 85 1016.5
20260510032004 47 186 1.0 3.0 0.00 0.00 0.00 80 1016.5
20260510031003 48 190 1.0 4.0 0.00 0.00 0.00 74 1016.5
20260510030004 48 176 1.0 4.0 0.00 0.00 0.00 72 1016.5
20260510025003 48 174 1.0 4.0 0.00 0.00 0.00 71 1016.9
20260510024003 48 177 1.0 3.0 0.00 0.00 0.00 70 1016.5
20260510023004 49 180 2.0 7.0 0.00 0.00 0.00 68 1016.9
20260510022004 49 176 2.0 8.0 0.00 0.00 0.00 65 1016.9
20260510021003 49 177 2.0 8.0 0.00 0.00 0.00 64 1016.5
20260510020004 49 169 2.0 7.0 0.00 0.00 0.00 62 1016.9
20260510015004 49 197 2.0 4.0 0.00 0.00 0.00 61 1016.5
20260510014003 49 162 1.0 6.0 0.00 0.00 0.00 59 1016.5
20260510013004 50 187 2.0 6.0 0.00 0.00 0.00 57 1016.5
20260510012004 50 177 3.0 8.0 0.00 0.00 0.00 56 1016.9
20260510011003 51 180 3.0 8.0 0.00 0.00 0.00 53 1016.5
20260510010003 51 179 1.0 6.0 0.00 0.00 0.00 47 1016.5
20260510005003 52 182 1.0 4.0 0.00 0.00 0.00 44 1016.2
20260510004003 52 186 2.0 8.0 0.00 0.00 0.00 42 1015.8
20260510003004 52 210 1.0 7.0 0.00 0.00 0.00 41 1016.2
20260510002003 52 193 2.0 9.0 0.00 0.00 0.00 38 1015.8
20260510001004 51 182 2.0 6.0 0.00 0.00 0.00 38 1015.8
20260510000004 50 175 0.0 2.0 0.00 0.00 0.00 42 1015.5
20260509235003 50 191 0.0 1.0 0.00 0.00 0.00 42 1015.5
20260509234003 51 201 0.0 2.0 0.00 0.00 0.00 43 1015.5
20260509233004 51 216 1.0 2.0 0.00 0.00 0.00 39 1015.2
20260509232004 52 215 1.0 4.0 0.00 0.00 0.00 38 1015.5
20260509231004 52 198 1.0 4.0 0.00 0.01 0.00 38 1015.5
20260509230004 53 200 1.0 4.0 0.00 0.02 0.00 36 1015.5
20260509225004 53 188 2.0 7.0 0.00 0.04 0.00 36 1015.2
20260509224004 54 196 2.0 7.0 0.00 0.04 0.00 33 1015.2
20260509223004 54 204 2.0 10.0 0.00 0.04 0.00 32 1014.8
20260509222003 54 188 2.0 7.0 0.00 0.04 0.00 31 1014.8
20260509221003 55 192 1.0 7.0 0.00 0.04 0.00 34 1014.8
20260509220004 55 184 2.0 7.0 0.00 0.04 0.00 32 1014.5
20260509215003 56 169 1.0 4.0 0.00 0.04 0.00 33 1014.5
20260509214003 56 175 2.0 4.0 0.00 0.04 0.00 35 1014.5
20260509213003 57 199 2.0 4.0 0.00 0.04 0.00 34 1014.5
20260509212004 58 184 2.0 4.0 0.00 0.04 0.00 33 1014.5
20260509211003 58 185 2.0 10.0 0.00 0.04 0.00 35 1014.1
20260509210004 58 209 2.0 7.0 0.00 0.04 0.00 37 1014.1
20260509205003 58 195 2.0 4.0 0.00 0.04 0.00 36 1013.8
20260509204003 58 200 1.0 4.0 0.00 0.04 0.00 36 1013.8
20260509203004 59 209 2.0 6.0 0.00 0.04 0.00 37 1013.8
20260509202003 59 183 1.0 4.0 0.00 0.04 0.00 37 1013.8
20260509201003 59 190 1.0 3.0 0.00 0.04 0.00 39 1013.5
20260509200004 59 163 1.0 4.0 0.00 0.04 0.00 40 1013.5
20260509195003 58 160 1.0 6.0 0.00 0.04 0.00 41 1013.5
20260509194003 56 167 1.0 6.0 0.00 0.04 0.00 44 1013.8
20260509193003 56 196 2.0 6.0 0.00 0.04 0.00 43 1013.5
20260509192003 58 196 2.0 8.0 0.00 0.04 0.00 41 1013.8
20260509191003 58 176 1.0 4.0 0.00 0.04 0.00 42 1013.5
20260509190004 57 191 1.0 3.0 0.00 0.04 0.00 40 1013.5
20260509185003 56 249 0.0 2.0 0.00 0.04 0.00 42 1013.8
20260509184003 56 234 1.0 3.0 0.00 0.04 0.00 46 1013.5
20260509183003 55 218 1.0 6.0 0.00 0.04 0.00 44 1013.8
20260509182003 55 185 1.0 3.0 0.00 0.04 0.00 44 1013.8
20260509181004 56 217 1.0 2.0 0.00 0.04 0.00 41 1013.5
20260509180004 57 198 1.0 3.0 0.00 0.04 0.00 42 1013.5
20260509175003 58 180 2.0 4.0 0.00 0.04 0.00 44 1013.5
20260509174003 56 218 1.0 3.0 0.00 0.04 0.00 45 1013.5
20260509173003 56 259 1.0 6.0 0.00 0.04 0.00 42 1013.5
20260509172004 57 243 1.0 3.0 0.00 0.04 0.00 40 1013.1
20260509171004 57 211 1.0 3.0 0.00 0.04 0.00 40 1013.1
20260509170003 57 274 2.0 4.0 0.00 0.04 0.00 41 1013.5
20260509165004 56 272 1.0 4.0 0.00 0.04 0.00 41 1013.1
20260509164003 57 268 2.0 7.0 0.00 0.04 0.00 41 1013.1
20260509163004 57 303 2.0 7.0 0.00 0.04 0.00 40 1013.1
20260509162003 58 228 3.0 9.0 0.00 0.04 0.00 36 1013.1
20260509161003 58 243 2.0 9.0 0.00 0.04 0.00 42 1013.5
20260509160004 55 173 2.0 4.0 0.00 0.04 0.00 57 1013.5
20260509155003 54 168 1.0 4.0 0.00 0.04 0.00 57 1013.1
20260509154004 55 149 1.0 3.0 0.00 0.04 0.00 54 1013.5
20260509153003 56 156 1.0 6.0 0.00 0.04 0.00 55 1013.1
20260509152003 54 171 1.0 6.0 0.00 0.04 0.00 65 1013.1
20260509151003 52 157 2.0 4.0 0.00 0.04 0.00 63 1013.1
20260509150004 53 159 1.0 4.0 0.00 0.04 0.00 62 1013.5
20260509145003 54 151 2.0 6.0 0.00 0.04 0.00 63 1013.1
20260509144003 54 193 1.0 3.0 0.00 0.04 0.00 50 1013.1
20260509143003 54 225 1.0 2.0 0.00 0.04 0.00 44 1013.1
20260509142003 56 241 1.0 8.0 0.00 0.04 0.00 45 1013.1
20260509141003 58 272 2.0 7.0 0.00 0.04 0.00 46 1012.8
20260509140004 58 211 2.0 6.0 0.00 0.04 0.00 48 1012.4
20260509135003 57 258 2.0 8.0 0.00 0.04 0.00 46 1012.8